Aérodrome :
LOGIN :

S'inscrire | Disclaimer

   EN    FR    IT 

 










Légende :    VFR   VFR Marginal   IFR   IFR Intensif   IFR Très Intensif
Visi : 
Plafond : 
>= 8 km
>= 3000ft
5 à 8 km
1000 à 3000 ft
1500m à 5 km
500 à 1000 ft
800 à 1500m
200 à 500 ft
< 800m
< 200 ft
Symboles :   Orages  Brouillard  Fortes neiges  Fortes précipitations  Vent > 20 kt
SIGMETs :   Divers  Orages  Givrage  Turbulence  Onde Orograph.  Cendres Volcan.







- Altitude de l'aérodrome : 48 ft
- Code IATA : PSR


LIBP - Abruzzo Pescara

DERNIER METAR :
  • 210950Z 02007G17KT 340V080 9999 FEW050 SCT070 12/05 Q1004

METARs EXPIRÉS :
  • 210850Z VRB02KT 9999 FEW035 SCT070 14/05 Q1002
  • 210750Z 22009KT 9999 FEW040 SCT070 13/05 Q1002

TAF TAF LIBP
Valide du 21 à 06h jusqu'au 22 à 06h UTC


210500Z 2106/2206 VRB05KT 9999 SCT030
BECMG 2022/2024 24012KT
Pas de NOTAMs connus pour ce terrain.
1 SIGMET publié pour la FIR Brindisi (LIBB) :
 
Turbulence forte
LIBB SIGMET 3 VALID 210900/211300 LIIB
LIBB BRINDISI FIR SEV TURB FCST ENTIRE FIR FL220/390 MOV E NC=



MET'MAP, la Météo Aéronautique d'un coup d'oeil ! - Copyright ORBIFLY Décembre 2007 - Disclaimer

ORBIFLY MET'MAP TEAM :

Programmation & Développement : Alexandra Zaïnal
Conception & Développement : Baudouin d'Aumeries
Co-Programmation & Développement : Marc-Olivier Méhu
Soutien technique & logistique : Manuel Goepfert

Contact : metmap@orbifly.com




SOURCES & CREDITS :

   NOAA